Weather Roundup
Issued by NWS

Home | Current Version | Previous Version | Text Only | Print | Product List | Glossary On
Versions: 1 2 3 4 5 6 7 8 9 10 11 12 13 14 15 16 17 18 19 20 21 22 23 24 25 26 27 28 29 30 31 32 33 34 35 36 37 38 39 40 41 42 43 44 45 46 47 48 49 50
000
NZUS93 KARX 250310
HRRWXR

CURRENT HOURLY OBSERVATIONS ACROSS
MUCH OF THE UPPER MISSISSIPPI VALLEY
NATIONAL WEATHER SERVICE LA CROSSE WI
1000 PM CDT SAT SEP 24 2016


...SOUTHEAST MINNESOTA...


CITY           SKY/WX    TMP DP  RH WIND       PRES   REMARKS
ROCHESTER      CLOUDY    67  65  93 SE14G23   30.04S
ROCHESTER/MAYO   N/A     66  67 100 E13G18    30.03F
WINONA         CLOUDY    68  63  83 SE10      30.05F
AUSTIN         MOCLDY    66  63  88 SE14      30.00F
ALBERT LEA     LGT RAIN  68  66  94 SE16      29.98F
DODGE CENTER   CLOUDY    66  63  88 SE16G22   30.01F
PRESTON        CLOUDY    65  62  90 SE12      30.05F FOG
OWATONNA       CLOUDY    68  63  83 SE10G20   29.98F
FARIBAULT      MOCLDY    68  64  88 E12G17    29.98F
$$

...ELSEWHERE IN MINNESOTA...


CITY           SKY/WX    TMP DP  RH WIND       PRES   REMARKS
MINNEAPOLIS    CLOUDY    68  62  81 SE16      29.98F
INTNL FALLS    CLOUDY    62  58  86 SE12      29.97F
DULUTH         CLOUDY    62  59  90 SE15      30.04F
RED WING       CLOUDY    68  63  83 SE14G20   30.01F
REDWOOD FALLS  CLOUDY    68  67  96 SE3       29.92S
MANKATO        LGT RAIN  69  66  90 SE14      29.95S
WORTHINGTON    CLOUDY    68  66  93 S8        29.95S
FAIRMONT       CLOUDY    68  66  93 S10       29.96R
$$

...SOUTHWEST WISCONSIN...


CITY           SKY/WX    TMP DP  RH WIND       PRES   REMARKS
LA CROSSE        N/A     67  63  87 SE6       30.06F
PRAIRIE DU CHI CLOUDY    66  63  88 SE3       30.06S
BOSCOBEL       CLEAR     65  63  93 NE3       30.09S
LONE ROCK      CLEAR     65  61  87 E9        30.11S
PLATTEVILLE    CLEAR     66  65  99 E13       30.09S
FORT MC COY    CLEAR     61  60  96 E7        30.10F
CAMP DOUGLAS   CLEAR     60  59  97 E9        30.11F
MAUSTON-NEW LI CLEAR     61  60  96 E3        30.12F
VIROQUA        FAIR      63  62  98 E8        30.09F
WIS DELLS      CLEAR     61  59  94 E6        30.13F
$$

...ELSEWHERE IN WISCONSIN...


CITY           SKY/WX    TMP DP  RH WIND       PRES   REMARKS
MILWAUKEE      MOCLDY    67  61  81 E7        30.16S
MADISON        CLOUDY    64  60  87 E8        30.14S
GREEN BAY      CLOUDY    61  56  83 E6        30.18F
EAU CLAIRE     CLOUDY    65  60  84 SE8       30.07F
BLACK RVR FLS  CLOUDY    63  62  96 E6        30.10F
MEDFORD        MOCLDY    60  57  89 SE7       30.14F
WAUSAU         CLOUDY    61  52  72 SE13      30.16S
WIS RAPIDS     CLOUDY    63  59  87 SE9       30.16F
MARSHFIELD     PTCLDY    61  56  83 E9        30.13F
RICE LAKE      CLOUDY    64  59  83 SE16      30.07F
$$

...NORTHEAST IOWA...


CITY           SKY/WX    TMP DP  RH WIND       PRES   REMARKS
WATERLOO       MOCLDY    69  66  90 SE10      30.02R
DUBUQUE        CLEAR     67  64  90 E9        30.08S
DECORAH        PTCLDY    66  66 100 E9        30.05S
MASON CITY     NOT AVBL
CHARLES CITY   CLOUDY    68  66  94 E10       30.04R
OELWEIN        MOCLDY    68  66  94 SE9       30.05S FOG
$$

...ELSEWHERE IN IOWA...


CITY           SKY/WX    TMP DP  RH WIND       PRES   REMARKS
DES MOINES     TSTM      70  67  90 CALM      30.01F
IOWA CITY      CLOUDY    72  67  84 SE6       30.05R
FORT DODGE     CLOUDY    66  64  94 SE6       30.01R
MARSHALLTOWN   CLOUDY    74  70  87 E9        30.00R
CEDAR RAPIDS   CLOUDY    70  69  97 SE6       30.04R
$$

...NORTHERN ILLINOIS...


CITY           SKY/WX    TMP DP  RH WIND       PRES   REMARKS
CHICAGO-OHARE  CLEAR     68  63  84 NE5       30.13S
CHICAGO-MIDWAY CLEAR     72  63  73 E8        30.13R
MOLINE         CLEAR     73  67  81 E12       30.03F
ROCKFORD       CLEAR     66  62  87 E7        30.13S
PEORIA         CLEAR     77  68  73 E9        30.06S
$$

NOTE: "FAIR" INDICATES FEW OR NO CLOUDS BELOW 12,000 FEET WITH NO
SIGNIFICANT WEATHER AND/OR OBSTRUCTIONS TO VISIBILITY. WIND
SPEEDS ARE IN MILES-PER-HOUR.




USA.gov is the U.S. government's official web portal to all federal, state and local government web resources and services.